TimeEST,TemperatureF,Dew PointF,Humidity,Sea Level PressureIn,VisibilityMPH,Wind Direction,Wind SpeedMPH,Gust SpeedMPH,PrecipitationIn,Events,Conditions,WindDirDegrees,DateUTC
12:15 AM,55.4,53.6,94,30.38,10.0,SE,11.5,-,N/A,,Overcast,130,2013-01-10 05:15:00
12:35 AM,55.4,53.6,94,30.38,10.0,ESE,11.5,-,N/A,,Overcast,120,2013-01-10 05:35:00
12:55 AM,55.4,53.6,94,30.39,10.0,ESE,9.2,-,N/A,,Overcast,120,2013-01-10 05:55:00
1:35 AM,55.4,53.6,94,30.38,10.0,ESE,11.5,-,N/A,,Overcast,120,2013-01-10 06:35:00
1:55 AM,55.4,53.6,94,30.38,10.0,SE,9.2,-,N/A,,Overcast,130,2013-01-10 06:55:00
3:15 AM,57.2,53.6,88,30.38,10.0,SE,9.2,-,N/A,,Overcast,140,2013-01-10 08:15:00
3:35 AM,57.2,53.6,88,30.38,10.0,SSE,5.8,-,N/A,,Overcast,150,2013-01-10 08:35:00
3:55 AM,55.4,53.6,94,30.37,10.0,SE,6.9,-,N/A,,Overcast,130,2013-01-10 08:55:00
4:15 AM,55.4,53.6,94,30.36,10.0,SE,8.1,-,N/A,,Overcast,140,2013-01-10 09:15:00
4:35 AM,57.2,53.6,88,30.35,10.0,SE,8.1,-,N/A,,Overcast,140,2013-01-10 09:35:00
4:55 AM,57.2,53.6,88,30.34,10.0,SE,10.4,-,N/A,,Overcast,140,2013-01-10 09:55:00
5:15 AM,57.2,53.6,88,30.34,10.0,SE,11.5,-,N/A,,Overcast,140,2013-01-10 10:15:00
5:35 AM,57.2,53.6,88,30.33,10.0,SSE,11.5,-,N/A,,Overcast,150,2013-01-10 10:35:00
5:55 AM,57.2,53.6,88,30.32,10.0,SE,13.8,-,N/A,,Overcast,140,2013-01-10 10:55:00
6:15 AM,57.2,53.6,88,30.32,10.0,SE,10.4,-,N/A,,Overcast,130,2013-01-10 11:15:00
6:35 AM,57.2,53.6,88,30.32,10.0,SE,12.7,-,N/A,,Overcast,130,2013-01-10 11:35:00
6:55 AM,57.2,53.6,88,30.33,10.0,SE,11.5,-,N/A,,Overcast,130,2013-01-10 11:55:00
7:35 AM,57.2,53.6,88,30.32,10.0,ESE,11.5,-,N/A,,Overcast,120,2013-01-10 12:35:00
7:55 AM,57.2,53.6,88,30.33,10.0,SE,12.7,-,N/A,,Overcast,130,2013-01-10 12:55:00
8:15 AM,57.2,53.6,88,30.33,10.0,SE,13.8,-,N/A,,Overcast,140,2013-01-10 13:15:00
8:35 AM,57.2,53.6,88,30.34,10.0,SSE,8.1,-,N/A,,Overcast,160,2013-01-10 13:35:00
8:55 AM,57.2,53.6,88,30.35,10.0,SE,10.4,-,N/A,,Overcast,140,2013-01-10 13:55:00
9:35 AM,57.2,53.6,88,30.35,10.0,SE,13.8,-,N/A,,Overcast,130,2013-01-10 14:35:00
9:55 AM,57.2,53.6,88,30.36,10.0,SE,15.0,-,N/A,,Overcast,130,2013-01-10 14:55:00
10:15 AM,57.2,53.6,88,30.36,10.0,SE,15.0,-,N/A,,Overcast,130,2013-01-10 15:15:00
10:35 AM,57.2,55.4,94,30.36,10.0,ESE,11.5,-,N/A,,Overcast,120,2013-01-10 15:35:00
10:55 AM,57.2,55.4,94,30.35,10.0,ESE,15.0,-,N/A,,Overcast,120,2013-01-10 15:55:00
11:15 AM,57.2,55.4,94,30.35,10.0,ESE,9.2,-,N/A,,Overcast,110,2013-01-10 16:15:00
11:35 AM,57.2,55.4,94,30.34,10.0,SE,16.1,-,N/A,,Overcast,130,2013-01-10 16:35:00
11:55 AM,57.2,55.4,94,30.33,10.0,SE,11.5,-,N/A,,Overcast,140,2013-01-10 16:55:00
12:15 PM,59.0,55.4,88,30.31,10.0,SE,15.0,-,N/A,,Overcast,130,2013-01-10 17:15:00
12:35 PM,60.8,57.2,88,30.30,10.0,SE,17.3,-,N/A,,Overcast,140,2013-01-10 17:35:00
12:55 PM,60.8,55.4,82,30.29,10.0,SE,12.7,-,N/A,,Overcast,140,2013-01-10 17:55:00
1:15 PM,60.8,55.4,82,30.29,10.0,SSE,11.5,-,N/A,,Overcast,150,2013-01-10 18:15:00
1:35 PM,60.8,57.2,88,30.27,10.0,SE,13.8,-,N/A,,Overcast,140,2013-01-10 18:35:00
1:55 PM,60.8,57.2,88,30.26,9.0,SE,19.6,-,N/A,,Mostly Cloudy,130,2013-01-10 18:55:00
2:15 PM,59.0,57.2,94,30.25,9.0,ESE,16.1,-,N/A,,Mostly Cloudy,120,2013-01-10 19:15:00
2:35 PM,60.8,57.2,88,30.25,10.0,SSE,12.7,-,N/A,,Mostly Cloudy,150,2013-01-10 19:35:00
2:55 PM,60.8,57.2,88,30.25,10.0,SE,13.8,-,N/A,,Mostly Cloudy,140,2013-01-10 19:55:00
3:15 PM,60.8,57.2,88,30.26,10.0,SE,12.7,-,N/A,,Overcast,140,2013-01-10 20:15:00
3:35 PM,60.8,57.2,88,30.26,10.0,SE,11.5,-,N/A,,Overcast,140,2013-01-10 20:35:00
3:55 PM,60.8,57.2,88,30.25,10.0,SE,6.9,-,N/A,,Overcast,140,2013-01-10 20:55:00
4:15 PM,60.8,57.2,88,30.24,10.0,SE,9.2,-,N/A,,Overcast,130,2013-01-10 21:15:00
4:35 PM,62.6,57.2,82,30.25,10.0,SE,11.5,-,N/A,,Overcast,140,2013-01-10 21:35:00
4:55 PM,60.8,57.2,88,30.25,10.0,SE,6.9,-,N/A,,Overcast,140,2013-01-10 21:55:00
5:15 PM,62.6,57.2,82,30.24,10.0,SE,8.1,-,N/A,,Overcast,140,2013-01-10 22:15:00
5:35 PM,62.6,57.2,82,30.24,10.0,SE,8.1,-,N/A,,Overcast,140,2013-01-10 22:35:00
5:55 PM,62.6,57.2,82,30.23,10.0,SSE,6.9,-,N/A,,Overcast,160,2013-01-10 22:55:00
6:15 PM,62.6,57.2,82,30.23,10.0,SSE,8.1,-,N/A,,Overcast,160,2013-01-10 23:15:00
6:35 PM,62.6,57.2,82,30.22,10.0,SSE,6.9,-,N/A,,Overcast,160,2013-01-10 23:35:00
6:55 PM,62.6,57.2,82,30.21,10.0,SSE,11.5,-,N/A,,Overcast,150,2013-01-10 23:55:00
7:15 PM,62.6,57.2,82,30.20,10.0,SSE,9.2,-,N/A,,Overcast,150,2013-01-11 00:15:00
7:35 PM,62.6,57.2,82,30.19,10.0,SSE,11.5,-,N/A,,Overcast,150,2013-01-11 00:35:00
7:55 PM,62.6,57.2,82,30.20,10.0,South,10.4,-,N/A,,Overcast,170,2013-01-11 00:55:00
8:15 PM,62.6,57.2,82,30.18,10.0,SSE,13.8,-,N/A,,Overcast,150,2013-01-11 01:15:00
8:35 PM,62.6,57.2,82,30.16,10.0,SSE,13.8,-,N/A,,Overcast,150,2013-01-11 01:35:00
8:55 PM,62.6,55.4,77,30.16,10.0,SSE,11.5,-,N/A,,Overcast,150,2013-01-11 01:55:00
9:15 PM,62.6,57.2,82,30.14,10.0,SE,12.7,-,N/A,,Overcast,140,2013-01-11 02:15:00
9:35 PM,62.6,57.2,82,30.13,10.0,SE,15.0,-,N/A,,Overcast,140,2013-01-11 02:35:00
9:55 PM,62.6,57.2,82,30.10,10.0,SE,16.1,-,N/A,,Overcast,140,2013-01-11 02:55:00
10:15 PM,64.4,57.2,77,30.09,10.0,SE,21.9,29.9,N/A,,Overcast,140,2013-01-11 03:15:00
10:35 PM,64.4,57.2,77,30.09,10.0,SE,13.8,-,N/A,,Overcast,140,2013-01-11 03:35:00
10:55 PM,64.4,57.2,77,30.09,10.0,SSE,16.1,-,N/A,,Overcast,150,2013-01-11 03:55:00
11:15 PM,64.4,57.2,77,30.09,10.0,SSE,20.7,32.2,N/A,,Overcast,150,2013-01-11 04:15:00
11:35 PM,64.4,59.0,83,30.08,10.0,SSE,18.4,29.9,N/A,,Overcast,150,2013-01-11 04:35:00
11:55 PM,64.4,59.0,83,30.07,10.0,SSE,20.7,-,N/A,,Overcast,150,2013-01-11 04:55:00